• In Moldova, Republic
  • List of Countries
  • For 7 days
  • Water Temperature
  • Satellite Maps
  • Weather Map
  • Weather Widgets
  • user-avatar
    Login

    Hourly Weather Wiktoria

    Today, 22 September, Friday

    Time Temperature Precipitation Wind Pressure Humidity
    00:00 +12°C° 0 mm 2 mps 746 mmHg 64%
    01:00 +10°C° 0 mm 2 mps 746 mmHg 65%
    02:00 +9°C° 0 mm 2 mps 746 mmHg 66%
    03:00 +9°C° 0 mm 2 mps 746 mmHg 67%
    04:00 +8°C° 0 mm 2 mps 745 mmHg 68%
    05:00 +8°C° 0 mm 2 mps 745 mmHg 69%
    06:00 +8°C° 0 mm 2 mps 746 mmHg 70%
    07:00 +8°C° 0 mm 2 mps 746 mmHg 71%
    08:00 +11°C° 0 mm 3 mps 746 mmHg 67%
    09:00 +14°C° 0 mm 3 mps 746 mmHg 64%
    10:00 +17°C° 0 mm 4 mps 745 mmHg 60%
    11:00 +19°C° 0 mm 4 mps 745 mmHg 59%
    12:00 +20°C° 0 mm 4 mps 745 mmHg 58%
    13:00 +22°C° 0 mm 4 mps 744 mmHg 56%
    14:00 +24°C° 0 mm 3 mps 744 mmHg 58%
    15:00 +25°C° 0 mm 2 mps 743 mmHg 60%
    16:00 +25°C° 0 mm 2 mps 743 mmHg 62%
    17:00 +23°C° 0 mm 2 mps 743 mmHg 67%
    18:00 +19°C° 0 mm 3 mps 743 mmHg 72%
    19:00 +17°C° 0 mm 3 mps 742 mmHg 78%
    20:00 +16°C° 0 mm 3 mps 742 mmHg 77%
    21:00 +14°C° 0 mm 3 mps 742 mmHg 77%
    22:00 +14°C° 0 mm 2 mps 742 mmHg 77%
    23:00 +14°C° 0 mm 2 mps 742 mmHg 76%

    Tomorrow, 23 September, Saturday

    Time Temperature Precipitation Wind Pressure Humidity
    00:00 +13°C° 0 mm 2 mps 742 mmHg 76%
    01:00 +12°C° 0 mm 3 mps 742 mmHg 76%
    02:00 +11°C° 0 mm 3 mps 741 mmHg 74%
    03:00 +11°C° 0 mm 3 mps 741 mmHg 72%
    04:00 +11°C° 0 mm 3 mps 740 mmHg 69%
    05:00 +11°C° 0 mm 4 mps 740 mmHg 66%
    06:00 +12°C° 0 mm 5 mps 740 mmHg 62%
    07:00 +12°C° 0 mm 5 mps 739 mmHg 58%
    08:00 +14°C° 0 mm 6 mps 738 mmHg 57%
    09:00 +17°C° 0 mm 6 mps 738 mmHg 56%
    10:00 +20°C° 0 mm 7 mps 737 mmHg 55%
    11:00 +23°C° 0 mm 7 mps 736 mmHg 55%
    12:00 +26°C° 0 mm 6 mps 735 mmHg 55%
    13:00 +28°C° 0 mm 6 mps 734 mmHg 55%
    14:00 +27°C° 0 mm 7 mps 734 mmHg 55%
    15:00 +26°C° 0 mm 7 mps 733 mmHg 55%
    16:00 +24°C° 0 mm 8 mps 733 mmHg 56%
    17:00 +22°C° 0 mm 8 mps 734 mmHg 59%
    18:00 +18°C° 0 mm 7 mps 735 mmHg 62%
    19:00 +16°C° 0 mm 6 mps 737 mmHg 66%
    20:00 +14°C° 0 mm 5 mps 737 mmHg 70%
    21:00 +13°C° 0 mm 3 mps 738 mmHg 75%
    22:00 +13°C° 0 mm 2 mps 739 mmHg 79%
    23:00 +12°C° 0 mm 2 mps 739 mmHg 79%

    Day after tomorrow, 24 September, Sunday

    Time Temperature Precipitation Wind Pressure Humidity
    00:00 +10°C° 0 mm 2 mps 739 mmHg 80%
    01:00 +10°C° 0 mm 2 mps 739 mmHg 80%
    02:00 +9°C° 0 mm 3 mps 739 mmHg 83%
    03:00 +9°C° 0 mm 3 mps 739 mmHg 86%
    04:00 +8°C° 0 mm 3 mps 739 mmHg 89%
    05:00 +9°C° 0 mm 3 mps 739 mmHg 88%
    06:00 +8°C° 0 mm 4 mps 739 mmHg 87%
    07:00 +8°C° 0 mm 4 mps 739 mmHg 87%
    08:00 +9°C° 0.2 mm 5 mps 739 mmHg 84%
    09:00 +10°C° 0.2 mm 6 mps 740 mmHg 82%
    10:00 +12°C° 0.2 mm 7 mps 740 mmHg 79%
    11:00 +14°C° 0.3 mm 7 mps 740 mmHg 75%
    12:00 +13°C° 0.3 mm 8 mps 740 mmHg 71%
    13:00 +15°C° 0.3 mm 8 mps 740 mmHg 67%
    14:00 +15°C° 0.3 mm 8 mps 739 mmHg 69%
    15:00 +15°C° 0.3 mm 7 mps 739 mmHg 70%
    16:00 +15°C° 0.3 mm 7 mps 739 mmHg 72%
    17:00 +14°C° 0.1 mm 6 mps 739 mmHg 73%
    18:00 +13°C° 0.1 mm 5 mps 740 mmHg 74%
    19:00 +12°C° 0.1 mm 4 mps 740 mmHg 75%
    20:00 +11°C° 0 mm 4 mps 741 mmHg 77%
    21:00 +10°C° 0 mm 4 mps 742 mmHg 80%
    22:00 +9°C° 0 mm 3 mps 743 mmHg 83%
    23:00 +9°C° 0 mm 3 mps 743 mmHg 86%

    25 September, Monday

    Time Temperature Precipitation Wind Pressure Humidity
    00:00 +8°C° 0 mm 3 mps 743 mmHg 90%
    01:00 +7°C° 0 mm 2 mps 743 mmHg 93%
    02:00 +7°C° 0 mm 2 mps 743 mmHg 94%
    03:00 +7°C° 0 mm 2 mps 743 mmHg 95%
    04:00 +6°C° 0 mm 2 mps 743 mmHg 96%
    05:00 +7°C° 0 mm 2 mps 743 mmHg 96%
    06:00 +7°C° 0 mm 2 mps 744 mmHg 96%
    07:00 +7°C° 0 mm 2 mps 744 mmHg 96%
    08:00 +9°C° 0.1 mm 3 mps 745 mmHg 91%
    09:00 +10°C° 0.1 mm 4 mps 745 mmHg 86%
    10:00 +12°C° 0.1 mm 5 mps 745 mmHg 81%
    11:00 +12°C° 0.4 mm 5 mps 745 mmHg 80%
    12:00 +13°C° 0.4 mm 6 mps 744 mmHg 80%
    13:00 +13°C° 0.4 mm 6 mps 744 mmHg 79%
    14:00 +13°C° 0.3 mm 6 mps 744 mmHg 78%
    15:00 +13°C° 0.3 mm 6 mps 744 mmHg 78%
    16:00 +13°C° 0.3 mm 5 mps 744 mmHg 77%
    17:00 +12°C° 0.2 mm 4 mps 744 mmHg 81%
    18:00 +10°C° 0.2 mm 4 mps 745 mmHg 85%
    19:00 +8°C° 0.2 mm 3 mps 746 mmHg 89%
    20:00 +8°C° 0 mm 2 mps 746 mmHg 90%
    21:00 +7°C° 0 mm 2 mps 747 mmHg 91%
    22:00 +6°C° 0 mm 2 mps 747 mmHg 92%
    23:00 +6°C° 0 mm 1 mps 747 mmHg 92%

    26 September, Tuesday

    Time Temperature Precipitation Wind Pressure Humidity
    00:00 +5°C° 0 mm 1 mps 747 mmHg 92%
    01:00 +5°C° 0 mm 1 mps 747 mmHg 92%
    02:00 +4°C° 0 mm 1 mps 747 mmHg 93%
    03:00 +4°C° 0 mm 1 mps 747 mmHg 93%
    04:00 +3°C° 0 mm 1 mps 747 mmHg 94%
    05:00 +4°C° 0 mm 1 mps 747 mmHg 94%
    06:00 +4°C° 0 mm 1 mps 748 mmHg 94%
    07:00 +4°C° 0 mm 1 mps 748 mmHg 94%
    08:00 +6°C° 0 mm 2 mps 748 mmHg 87%
    09:00 +8°C° 0 mm 3 mps 748 mmHg 79%
    10:00 +9°C° 0 mm 5 mps 748 mmHg 72%
    11:00 +9°C° 0.4 mm 5 mps 748 mmHg 70%
    12:00 +10°C° 0.4 mm 5 mps 748 mmHg 68%
    13:00 +12°C° 0.4 mm 5 mps 748 mmHg 66%
    14:00 +12°C° 0.2 mm 5 mps 748 mmHg 64%
    15:00 +12°C° 0.2 mm 4 mps 749 mmHg 62%
    16:00 +12°C° 0.2 mm 4 mps 749 mmHg 60%
    17:00 +10°C° 0 mm 3 mps 749 mmHg 66%
    18:00 +8°C° 0 mm 2 mps 750 mmHg 72%
    19:00 +7°C° 0 mm 1 mps 751 mmHg 78%
    20:00 +7°C° 0 mm 1 mps 751 mmHg 79%
    21:00 +6°C° 0 mm 1 mps 752 mmHg 81%
    22:00 +6°C° 0 mm 1 mps 752 mmHg 83%
    23:00 +5°C° 0 mm 1 mps 752 mmHg 84%

    27 September, Wednesday

    Time Temperature Precipitation Wind Pressure Humidity
    00:00 +4°C° 0 mm 1 mps 752 mmHg 86%
    01:00 +4°C° 0 mm 1 mps 753 mmHg 87%
    02:00 +4°C° 0 mm 1 mps 753 mmHg 88%
    03:00 +3°C° 0 mm 1 mps 753 mmHg 89%
    04:00 +3°C° 0 mm 1 mps 753 mmHg 90%
    05:00 +3°C° 0 mm 1 mps 753 mmHg 89%
    06:00 +3°C° 0 mm 2 mps 754 mmHg 88%
    07:00 +3°C° 0 mm 2 mps 754 mmHg 87%
    08:00 +6°C° 0 mm 2 mps 754 mmHg 78%
    09:00 +9°C° 0 mm 2 mps 754 mmHg 70%
    10:00 +12°C° 0 mm 3 mps 753 mmHg 61%
    11:00 +13°C° 0 mm 3 mps 753 mmHg 58%
    12:00 +14°C° 0 mm 3 mps 752 mmHg 55%
    13:00 +16°C° 0 mm 3 mps 751 mmHg 52%
    14:00 +16°C° 0 mm 3 mps 751 mmHg 54%
    15:00 +17°C° 0 mm 3 mps 750 mmHg 56%
    16:00 +17°C° 0 mm 3 mps 750 mmHg 58%
    17:00 +14°C° 0 mm 3 mps 750 mmHg 63%
    18:00 +12°C° 0 mm 3 mps 750 mmHg 68%
    19:00 +11°C° 0 mm 3 mps 750 mmHg 73%
    20:00 +11°C° 0 mm 3 mps 750 mmHg 68%
    21:00 +11°C° 0 mm 4 mps 750 mmHg 64%
    22:00 +12°C° 0 mm 4 mps 750 mmHg 59%
    23:00 +11°C° 0.4 mm 4 mps 749 mmHg 65%
    Show more